Погода в Ньюарке

США     40°43′49″N   74°10′44″W
темп.,
°C
ветер,
м/с
пор.,
м/с
влажн.,
%
обл.,
%
осадки,
мм/ч
давл.,
гПа
погр.,
м
15 мая, сб
сб1523:00+16з23465 0.0 102397
02:00+14с11578 0.1 102325
05:00+13ссз11635 0.0 102422
08:00+15ссв235843 0.1 1025244
11:00+22вюв232878 0.0 10241433
14:00+22ююв432596 0.0 10242125
17:00+20с333582 0.0 10241232
20:00+18зюз35477 0.0 1024300
16 мая, вс
вс1623:00+15сз1159100 0.0 102547
02:00+13зюз126487 0.0 102549
05:00+12зюз2467100 0.0 1025124
08:00+15зюз2350100 0.0 1026252
11:00+20юз442669 0.0 10261022
14:00+22юз4426100 0.0 10242168
17:00+21зюз3331100 0.0 10231873
20:00+18сз2550100 0.0 1024353
17 мая, пн
пн1723:00+15з1263100 0.0 102584
02:00+13ссз26705 0.0 1025209
05:00+11зсз12671 0.0 102551
08:00+15ссз12480 0.0 1026271
11:00+21юз12331 0.0 10261774
14:00+23ю33276 0.0 10242599
17:00+22ю443145 0.0 10241973
20:00+19ююз464744 0.0 1025799
18 мая, вт
вт1823:00+16ююз36575 0.0 1026256
02:00+14зюз2776100 0.0 1026269
05:00+13зюз258185 0.0 1026176
08:00+17з24605 0.0 1027320
11:00+23зюз333676 0.0 10261672
14:00+23зюз3436100 0.0 10252082
17:00+23зюз2343100 0.0 10241343
20:00+20з265637 0.0 1025227
19 мая, ср
ср1923:00+18з26685 0.0 1026152
02:00+16з22732 0.0 102633
05:00+15сз26773 0.0 1026148
08:00+19с23565 0.0 1028236
11:00+26з11345 0.0 10271262
14:00+29ююв02250 0.0 10262161
17:00+29вюв22260 0.0 10252108
20:00+24ю23390 0.0 102684